sat.trackr.live / text

‹ back to catalog

STARLINK-34127

NORAD 63810 · 2025-092G

PAYLOAD ACTIVE UNKNOWN

§ Identity

Operator
Country
US
Launch date
2025-05-04
Launch site
AFETR
Launch vehicle
Mass (kg)
RCS (m²)

Purposes: comms

External: N2YO · Heavens-Above · Gunter

§ Orbital elements

Epoch: 2026-09-20T01:37:42.786912Z

Period
94.27 min
Inclination
42.9999°
Eccentricity
0.0001324
Mean motion
15.27591647 rev/d
Perigee alt
482.1 km
Apogee alt
483.9 km
Semi-major
6,861.2 km
B*
4.3637e-4
RAAN
154.6789°
Arg perigee
273.1704°
Mean anomaly
86.8996°
Rev number
7,834

§ Raw data

STARLINK-341271 63810U 25092G   26263.06785633  .00011769  00000+0  43637-3 0  99922 63810  42.9999 154.6789 0001324 273.1704  86.8996 15.27591647 78341

JSON: /api/v1/satellites/63810 · /tle

For live sub-satellite position, see the globe view (requires WebGL).

§ Visibility from observer

Set your observer location to see the next 7 days of passes ≥ 10°. The values pass through the URL so the page stays shareable.

No JS? Fill the form by hand. The geolocation button needs JavaScript.